Tracking 31027 objects as of 19-Jul-2025
HD Live streaming from Space Station
objects crossing your sky now

YAOGAN-36 05B

Track YAOGAN-36 05B now!
10-day predictions


NORAD ID: 57454
Int'l Code: 2023-106C
Perigee: 510.7 km
Apogee: 533.4 km
Inclination: 35.0 °
Period: 94.9 minutes
Semi major axis: 6893 km
RCS: Unknown
Launch date: July 26, 2023
Source: People's Republic of China (PRC)
Launch site: Xichang Space Center, China (XSC)
Your satellite tracking list
STARLINK-31611
Track 1 satellite(s)




NASA's NSSDC Master Catalog

Two Line Element Set (TLE):
1 57454U 23106C   25199.85791788  .00005488  00000-0  27206-3 0  9991
2 57454  34.9975 359.0621 0016489   3.1495 356.9319 15.17002340110203
Source of the keplerian elements: AFSPC